Year,Month,Day,Hour,Minute,Value (Times are PST for temperature in C)
2008,06,30,00,00,14.40
2008,06,30,00,01,14.40
2008,06,30,00,02,14.40
2008,06,30,00,03,14.30
2008,06,30,00,04,14.30
2008,06,30,00,05,14.30
2008,06,30,00,06,14.30
2008,06,30,00,07,14.30
2008,06,30,00,08,14.30
2008,06,30,00,09,14.30
2008,06,30,00,10,14.30
2008,06,30,00,11,14.30
2008,06,30,00,12,14.30
2008,06,30,00,13,14.30
2008,06,30,00,14,14.30
2008,06,30,00,15,14.30
2008,06,30,00,16,14.20
2008,06,30,00,17,14.20
2008,06,30,00,18,14.20
2008,06,30,00,19,14.20
2008,06,30,00,20,14.20
2008,06,30,00,21,14.20
2008,06,30,00,22,14.30
2008,06,30,00,23,14.30
2008,06,30,00,24,14.30
2008,06,30,00,25,14.30
2008,06,30,00,26,14.30
2008,06,30,00,27,14.30
2008,06,30,00,28,14.40
2008,06,30,00,29,14.40
2008,06,30,00,30,14.40
2008,06,30,00,31,14.40
2008,06,30,00,32,14.40
2008,06,30,00,33,14.50
2008,06,30,00,34,14.50
2008,06,30,00,35,14.50
2008,06,30,00,36,14.50
2008,06,30,00,37,14.40
2008,06,30,00,38,14.40
2008,06,30,00,39,14.40
2008,06,30,00,40,14.40
2008,06,30,00,41,14.40
2008,06,30,00,42,14.40
2008,06,30,00,43,14.40
2008,06,30,00,44,14.40
2008,06,30,00,45,14.40
2008,06,30,00,46,14.30
2008,06,30,00,47,14.30
2008,06,30,00,48,14.30
2008,06,30,00,49,14.30
2008,06,30,00,50,14.30
2008,06,30,00,51,14.30
2008,06,30,00,52,14.30
2008,06,30,00,53,14.40
2008,06,30,00,54,14.40
2008,06,30,00,55,14.40
2008,06,30,00,56,14.40
2008,06,30,00,57,14.40
2008,06,30,00,58,14.40
2008,06,30,00,59,14.40
2008,06,30,01,00,14.40
2008,06,30,01,01,14.40
2008,06,30,01,02,14.40
2008,06,30,01,03,14.40
2008,06,30,01,04,14.40
2008,06,30,01,05,14.50
2008,06,30,01,06,14.50
2008,06,30,01,07,14.50
2008,06,30,01,08,14.50
2008,06,30,01,09,14.60
2008,06,30,01,10,14.60
2008,06,30,01,11,14.60
2008,06,30,01,12,14.60
2008,06,30,01,13,14.60
2008,06,30,01,14,14.60
2008,06,30,01,15,14.60
2008,06,30,01,16,14.60
2008,06,30,01,17,14.60
2008,06,30,01,18,14.60
2008,06,30,01,19,14.60
2008,06,30,01,20,14.70
2008,06,30,01,21,14.70
2008,06,30,01,22,14.70
2008,06,30,01,23,14.70
2008,06,30,01,24,14.80
2008,06,30,01,25,14.80
2008,06,30,01,26,14.90
2008,06,30,01,27,14.90
2008,06,30,01,28,15.00
2008,06,30,01,29,15.00
2008,06,30,01,30,15.00
2008,06,30,01,31,15.00
2008,06,30,01,32,15.00
2008,06,30,01,33,15.00
2008,06,30,01,34,15.00
2008,06,30,01,35,14.90
2008,06,30,01,36,14.90
2008,06,30,01,37,14.90
2008,06,30,01,38,14.90
2008,06,30,01,39,14.90
2008,06,30,01,40,14.90
2008,06,30,01,41,14.90
2008,06,30,01,42,14.90
2008,06,30,01,43,14.90
2008,06,30,01,44,15.00
2008,06,30,01,45,15.00
2008,06,30,01,46,15.00
2008,06,30,01,47,15.00
2008,06,30,01,48,15.00
2008,06,30,01,49,15.00
2008,06,30,01,50,15.00
2008,06,30,01,51,15.00
2008,06,30,01,52,15.00
2008,06,30,01,53,15.00
2008,06,30,01,54,15.00
2008,06,30,01,55,15.00
2008,06,30,01,56,15.00
2008,06,30,01,57,14.90
2008,06,30,01,58,15.00
2008,06,30,01,59,15.00
2008,06,30,02,00,15.00
2008,06,30,02,01,15.00
2008,06,30,02,02,15.00
2008,06,30,02,03,15.00
2008,06,30,02,04,15.00
2008,06,30,02,05,15.00
2008,06,30,02,06,15.00
2008,06,30,02,07,15.00
2008,06,30,02,08,15.00
2008,06,30,02,09,15.00
2008,06,30,02,10,15.00
2008,06,30,02,11,15.00
2008,06,30,02,12,15.00
2008,06,30,02,13,15.00
2008,06,30,02,14,15.10
2008,06,30,02,15,15.10
2008,06,30,02,16,15.20
2008,06,30,02,17,15.20
2008,06,30,02,18,15.20
2008,06,30,02,19,15.30
2008,06,30,02,20,15.30
2008,06,30,02,21,15.30
2008,06,30,02,22,15.30
2008,06,30,02,23,15.40
2008,06,30,02,24,15.40
2008,06,30,02,25,15.40
2008,06,30,02,26,15.40
2008,06,30,02,27,15.40
2008,06,30,02,28,15.50
2008,06,30,02,29,15.50
2008,06,30,02,30,15.50
2008,06,30,02,31,15.60
2008,06,30,02,32,15.70
2008,06,30,02,33,15.80
2008,06,30,02,34,15.80
2008,06,30,02,35,15.90
2008,06,30,02,36,15.90
2008,06,30,02,37,15.90
2008,06,30,02,38,15.90
2008,06,30,02,39,15.90
2008,06,30,02,40,15.90
2008,06,30,02,41,15.90
2008,06,30,02,42,15.90
2008,06,30,02,43,15.90
2008,06,30,02,44,15.80
2008,06,30,02,45,15.80
2008,06,30,02,46,15.80
2008,06,30,02,47,15.80
2008,06,30,02,48,15.80
2008,06,30,02,49,15.80
2008,06,30,02,50,15.70
2008,06,30,02,51,15.80
2008,06,30,02,52,15.80
2008,06,30,02,53,15.80
2008,06,30,02,54,15.80
2008,06,30,02,55,15.80
2008,06,30,02,56,15.80
2008,06,30,02,57,15.80
2008,06,30,02,58,15.80
2008,06,30,02,59,15.70
2008,06,30,03,00,15.70
2008,06,30,03,01,15.70
2008,06,30,03,02,15.70
2008,06,30,03,03,15.60
2008,06,30,03,04,15.60
2008,06,30,03,05,15.60
2008,06,30,03,06,15.60
2008,06,30,03,07,15.60
2008,06,30,03,08,15.60
2008,06,30,03,09,15.60
2008,06,30,03,10,15.60
2008,06,30,03,11,15.60
2008,06,30,03,12,15.60
2008,06,30,03,13,15.60
2008,06,30,03,14,15.60
2008,06,30,03,15,15.60
2008,06,30,03,16,15.60
2008,06,30,03,17,15.60
2008,06,30,03,18,15.60
2008,06,30,03,19,15.60
2008,06,30,03,20,15.60
2008,06,30,03,21,15.60
2008,06,30,03,22,15.60
2008,06,30,03,23,15.60
2008,06,30,03,24,15.60
2008,06,30,03,25,15.60
2008,06,30,03,26,15.60
2008,06,30,03,27,15.60
2008,06,30,03,28,15.70
2008,06,30,03,29,15.70
2008,06,30,03,30,15.70
2008,06,30,03,31,15.70
2008,06,30,03,32,15.70
2008,06,30,03,33,15.70
2008,06,30,03,34,15.70
2008,06,30,03,35,15.70
2008,06,30,03,36,15.70
2008,06,30,03,37,15.70
2008,06,30,03,38,15.70
2008,06,30,03,39,15.70
2008,06,30,03,40,15.70
2008,06,30,03,41,15.70
2008,06,30,03,42,15.70
2008,06,30,03,43,15.70
2008,06,30,03,44,15.70
2008,06,30,03,45,15.70
2008,06,30,03,46,15.70
2008,06,30,03,47,15.70
2008,06,30,03,48,15.80
2008,06,30,03,49,15.80
2008,06,30,03,50,15.80
2008,06,30,03,51,15.80
2008,06,30,03,52,15.90
2008,06,30,03,53,16.00
2008,06,30,03,54,16.00
2008,06,30,03,55,16.00
2008,06,30,03,56,16.10
2008,06,30,03,57,16.10
2008,06,30,03,58,16.10
2008,06,30,03,59,16.10
2008,06,30,04,00,16.10
2008,06,30,04,01,16.10
2008,06,30,04,02,16.10
2008,06,30,04,03,16.10
2008,06,30,04,04,16.10
2008,06,30,04,05,16.10
2008,06,30,04,06,16.10
2008,06,30,04,07,16.10
2008,06,30,04,08,16.10
2008,06,30,04,09,16.20
2008,06,30,04,10,16.20
2008,06,30,04,11,16.20
2008,06,30,04,12,16.20
2008,06,30,04,13,16.10
2008,06,30,04,14,16.10
2008,06,30,04,15,16.10
2008,06,30,04,16,16.10
2008,06,30,04,17,16.10
2008,06,30,04,18,16.20
2008,06,30,04,19,16.20
2008,06,30,04,20,16.20
2008,06,30,04,21,16.20
2008,06,30,04,22,16.20
2008,06,30,04,23,16.30
2008,06,30,04,24,16.30
2008,06,30,04,25,16.30
2008,06,30,04,26,16.30
2008,06,30,04,27,16.30
2008,06,30,04,28,16.30
2008,06,30,04,29,16.30
2008,06,30,04,30,16.30
2008,06,30,04,31,16.30
2008,06,30,04,32,16.20
2008,06,30,04,33,16.20
2008,06,30,04,34,16.30
2008,06,30,04,35,16.30
2008,06,30,04,36,16.30
2008,06,30,04,37,16.40
2008,06,30,04,38,16.40
2008,06,30,04,39,16.40
2008,06,30,04,40,16.50
2008,06,30,04,41,16.50
2008,06,30,04,42,16.60
2008,06,30,04,43,16.60
2008,06,30,04,44,16.60
2008,06,30,04,45,16.60
2008,06,30,04,46,16.60
2008,06,30,04,47,16.60
2008,06,30,04,48,16.60
2008,06,30,04,49,16.60
2008,06,30,04,50,16.60
2008,06,30,04,51,16.60
2008,06,30,04,52,16.60
2008,06,30,04,53,16.60
2008,06,30,04,54,16.60
2008,06,30,04,55,16.60
2008,06,30,04,56,16.50
2008,06,30,04,57,16.50
2008,06,30,04,58,16.50
2008,06,30,04,59,16.50
2008,06,30,05,00,16.50
2008,06,30,05,01,16.50
2008,06,30,05,02,16.50
2008,06,30,05,03,16.50
2008,06,30,05,04,16.50
2008,06,30,05,05,16.50
2008,06,30,05,06,16.50
2008,06,30,05,07,16.60
2008,06,30,05,08,16.60
2008,06,30,05,09,16.60
2008,06,30,05,10,16.60
2008,06,30,05,11,16.70
2008,06,30,05,12,16.70
2008,06,30,05,13,16.70
2008,06,30,05,14,16.70
2008,06,30,05,15,16.70
2008,06,30,05,16,16.80
2008,06,30,05,17,16.80
2008,06,30,05,18,16.80
2008,06,30,05,19,16.80
2008,06,30,05,20,16.80
2008,06,30,05,21,16.80
2008,06,30,05,22,16.80
2008,06,30,05,23,16.80
2008,06,30,05,24,16.80
2008,06,30,05,25,16.80
2008,06,30,05,26,16.70
2008,06,30,05,27,16.70
2008,06,30,05,28,16.70
2008,06,30,05,29,16.70
2008,06,30,05,30,16.60
2008,06,30,05,31,16.60
2008,06,30,05,32,16.60
2008,06,30,05,33,16.60
2008,06,30,05,34,16.50
2008,06,30,05,35,16.50
2008,06,30,05,36,16.50
2008,06,30,05,37,16.40
2008,06,30,05,38,16.40
2008,06,30,05,39,16.40
2008,06,30,05,40,16.40
2008,06,30,05,41,16.40
2008,06,30,05,42,16.40
2008,06,30,05,43,16.40
2008,06,30,05,44,16.40
2008,06,30,05,45,16.40
2008,06,30,05,46,16.40
2008,06,30,05,47,16.40
2008,06,30,05,48,16.30
2008,06,30,05,49,16.30
2008,06,30,05,50,16.30
2008,06,30,05,51,16.30
2008,06,30,05,52,16.30
2008,06,30,05,53,16.30
2008,06,30,05,54,16.30
2008,06,30,05,55,16.40
2008,06,30,05,56,16.40
2008,06,30,05,57,16.40
2008,06,30,05,58,16.30
2008,06,30,05,59,16.40
2008,06,30,06,00,16.40
2008,06,30,06,01,16.40
2008,06,30,06,02,16.40
2008,06,30,06,03,16.40
2008,06,30,06,04,16.40
2008,06,30,06,05,16.40
2008,06,30,06,06,16.40
2008,06,30,06,07,16.40
2008,06,30,06,08,16.40
2008,06,30,06,09,16.40
2008,06,30,06,10,16.50
2008,06,30,06,11,16.50
2008,06,30,06,12,16.50
2008,06,30,06,13,16.60
2008,06,30,06,14,16.60
2008,06,30,06,15,16.70
2008,06,30,06,16,16.70
2008,06,30,06,17,16.80
2008,06,30,06,18,16.80
2008,06,30,06,19,16.80
2008,06,30,06,20,16.90
2008,06,30,06,21,16.90
2008,06,30,06,22,16.90
2008,06,30,06,23,16.90
2008,06,30,06,24,16.90
2008,06,30,06,25,16.90
2008,06,30,06,26,16.90
2008,06,30,06,27,16.90
2008,06,30,06,28,16.90
2008,06,30,06,29,16.90
2008,06,30,06,30,16.90
2008,06,30,06,31,17.00
2008,06,30,06,32,17.00
2008,06,30,06,33,17.00
2008,06,30,06,34,17.10
2008,06,30,06,35,17.10
2008,06,30,06,36,17.10
2008,06,30,06,37,17.10
2008,06,30,06,38,17.20
2008,06,30,06,39,17.20
2008,06,30,06,40,17.30
2008,06,30,06,41,17.20
2008,06,30,06,42,17.10
2008,06,30,06,43,17.10
2008,06,30,06,44,17.10
2008,06,30,06,45,17.10
2008,06,30,06,46,17.10
2008,06,30,06,47,16.90
2008,06,30,06,48,16.70
2008,06,30,06,49,16.50
2008,06,30,06,50,16.30
2008,06,30,06,51,16.10
2008,06,30,06,52,16.00
2008,06,30,06,53,15.90
2008,06,30,06,54,15.90
2008,06,30,06,55,15.90
2008,06,30,06,56,15.80
2008,06,30,06,57,15.80
2008,06,30,06,58,15.80
2008,06,30,06,59,15.80
2008,06,30,07,00,15.80
2008,06,30,07,01,15.80
2008,06,30,07,02,15.80
2008,06,30,07,03,15.80
2008,06,30,07,04,15.80
2008,06,30,07,05,15.80
2008,06,30,07,06,15.80
2008,06,30,07,07,15.80
2008,06,30,07,08,15.80
2008,06,30,07,09,15.80
2008,06,30,07,10,15.70
2008,06,30,07,11,15.70
2008,06,30,07,12,15.60
2008,06,30,07,13,15.50
2008,06,30,07,14,15.50
2008,06,30,07,15,15.40
2008,06,30,07,16,15.40
2008,06,30,07,17,15.30
2008,06,30,07,18,15.30
2008,06,30,07,19,15.20
2008,06,30,07,20,15.20
2008,06,30,07,21,15.20
2008,06,30,07,22,15.20
2008,06,30,07,23,15.20
2008,06,30,07,24,15.20
2008,06,30,07,25,15.20
2008,06,30,07,26,15.30
2008,06,30,07,27,15.30
2008,06,30,07,28,15.40
2008,06,30,07,29,15.50
2008,06,30,07,30,15.50
2008,06,30,07,31,15.60
2008,06,30,07,32,15.70
2008,06,30,07,33,15.80
2008,06,30,07,34,15.80
2008,06,30,07,35,15.90
2008,06,30,07,36,16.00
2008,06,30,07,37,16.10
2008,06,30,07,38,16.20
2008,06,30,07,39,16.20
2008,06,30,07,40,16.30
2008,06,30,07,41,16.30
2008,06,30,07,42,16.40
2008,06,30,07,43,16.50
2008,06,30,07,44,16.60
2008,06,30,07,45,16.70
2008,06,30,07,46,16.70
2008,06,30,07,47,16.80
2008,06,30,07,48,16.90
2008,06,30,07,49,16.90
2008,06,30,07,50,16.80
2008,06,30,07,51,16.70
2008,06,30,07,52,16.50
2008,06,30,07,53,16.30
2008,06,30,07,54,16.10
2008,06,30,07,55,15.90
2008,06,30,07,56,15.80
2008,06,30,07,57,15.70
2008,06,30,07,58,15.60
2008,06,30,07,59,15.50
2008,06,30,08,00,15.40
2008,06,30,08,01,15.40
2008,06,30,08,02,15.20
2008,06,30,08,03,15.10
2008,06,30,08,04,15.00
2008,06,30,08,05,15.00
2008,06,30,08,06,15.00
2008,06,30,08,07,15.00
2008,06,30,08,08,15.00
2008,06,30,08,09,15.00
2008,06,30,08,10,15.00
2008,06,30,08,11,15.00
2008,06,30,08,12,15.00
2008,06,30,08,13,15.00
2008,06,30,08,14,15.00
2008,06,30,08,15,15.00
2008,06,30,08,16,15.00
2008,06,30,08,17,15.10
2008,06,30,08,18,15.20
2008,06,30,08,19,15.20
2008,06,30,08,20,15.20
2008,06,30,08,21,15.20
2008,06,30,08,22,15.20
2008,06,30,08,23,15.20
2008,06,30,08,24,15.20
2008,06,30,08,25,15.20
2008,06,30,08,26,15.10
2008,06,30,08,27,15.10
2008,06,30,08,28,15.10
2008,06,30,08,29,15.00
2008,06,30,08,30,15.00
2008,06,30,08,31,15.00
2008,06,30,08,32,15.00
2008,06,30,08,33,15.00
2008,06,30,08,34,15.00
2008,06,30,08,35,15.00
2008,06,30,08,36,15.00
2008,06,30,08,37,15.00
2008,06,30,08,38,15.00
2008,06,30,08,39,15.00
2008,06,30,08,40,15.00
2008,06,30,08,41,15.00
2008,06,30,08,42,15.00
2008,06,30,08,43,15.00
2008,06,30,08,44,14.90
2008,06,30,08,45,14.80
2008,06,30,08,46,14.70
2008,06,30,08,47,14.70
2008,06,30,08,48,14.60
2008,06,30,08,49,14.70
2008,06,30,08,50,14.70
2008,06,30,08,51,14.80
2008,06,30,08,52,14.80
2008,06,30,08,53,14.80
2008,06,30,08,54,14.80
2008,06,30,08,55,14.80
2008,06,30,08,56,14.90
2008,06,30,08,57,14.90
2008,06,30,08,58,15.00
2008,06,30,08,59,15.00
2008,06,30,09,00,15.00
2008,06,30,09,01,15.00
2008,06,30,09,02,14.90
2008,06,30,09,03,14.80
2008,06,30,09,04,14.80
2008,06,30,09,05,14.90
2008,06,30,09,06,15.00
2008,06,30,09,07,15.00
2008,06,30,09,08,15.00
2008,06,30,09,09,15.00
2008,06,30,09,10,15.00
2008,06,30,09,11,15.00
2008,06,30,09,12,15.00
2008,06,30,09,13,15.10
2008,06,30,09,14,15.30
2008,06,30,09,15,15.40
2008,06,30,09,16,15.50
2008,06,30,09,17,15.70
2008,06,30,09,18,15.80
2008,06,30,09,19,15.90
2008,06,30,09,20,16.10
2008,06,30,09,21,16.40
2008,06,30,09,22,16.50
2008,06,30,09,23,16.60
2008,06,30,09,24,16.70
2008,06,30,09,25,16.60
2008,06,30,09,26,16.50
2008,06,30,09,27,16.40
2008,06,30,09,28,16.20
2008,06,30,09,29,16.00
2008,06,30,09,30,15.80
2008,06,30,09,31,15.70
2008,06,30,09,32,15.70
2008,06,30,09,33,15.70
2008,06,30,09,34,15.80
2008,06,30,09,35,15.80
2008,06,30,09,36,15.90
2008,06,30,09,37,16.00
2008,06,30,09,38,16.10
2008,06,30,09,39,16.30
2008,06,30,09,40,16.50
2008,06,30,09,41,16.70
2008,06,30,09,42,16.90
2008,06,30,09,43,17.10
2008,06,30,09,44,17.10
2008,06,30,09,45,17.20
2008,06,30,09,46,17.30
2008,06,30,09,47,17.10
2008,06,30,09,48,16.90
2008,06,30,09,49,16.60
2008,06,30,09,50,16.40
2008,06,30,09,51,16.20
2008,06,30,09,52,16.00
2008,06,30,09,53,15.80
2008,06,30,09,54,15.80
2008,06,30,09,55,15.80
2008,06,30,09,56,15.80
2008,06,30,09,57,15.80
2008,06,30,09,58,15.80
2008,06,30,09,59,15.80
2008,06,30,10,00,15.70
2008,06,30,10,01,15.70
2008,06,30,10,02,15.70
2008,06,30,10,03,15.80
2008,06,30,10,04,15.90
2008,06,30,10,05,16.10
2008,06,30,10,06,16.40
2008,06,30,10,07,16.50
2008,06,30,10,08,16.70
2008,06,30,10,09,16.90
2008,06,30,10,10,17.10
2008,06,30,10,11,17.30
2008,06,30,10,12,17.50
2008,06,30,10,13,17.80
2008,06,30,10,14,17.90
2008,06,30,10,15,18.00
2008,06,30,10,16,18.00
2008,06,30,10,17,18.10
2008,06,30,10,18,18.20
2008,06,30,10,19,18.20
2008,06,30,10,20,18.10
2008,06,30,10,21,18.00
2008,06,30,10,22,17.90
2008,06,30,10,23,17.80
2008,06,30,10,24,17.70
2008,06,30,10,25,17.50
2008,06,30,10,26,17.30
2008,06,30,10,27,17.20
2008,06,30,10,28,17.10
2008,06,30,10,29,17.10
2008,06,30,10,30,17.00
2008,06,30,10,31,16.90
2008,06,30,10,32,17.00
2008,06,30,10,33,17.10
2008,06,30,10,34,17.10
2008,06,30,10,35,17.20
2008,06,30,10,36,17.30
2008,06,30,10,37,17.20
2008,06,30,10,38,17.20
2008,06,30,10,39,17.30
2008,06,30,10,40,17.30
2008,06,30,10,41,17.30
2008,06,30,10,42,17.20
2008,06,30,10,43,17.10
2008,06,30,10,44,16.90
2008,06,30,10,45,16.80
2008,06,30,10,46,16.70
2008,06,30,10,47,16.60
2008,06,30,10,48,16.60
2008,06,30,10,49,16.50
2008,06,30,10,50,16.50
2008,06,30,10,51,16.50
2008,06,30,10,52,16.40
2008,06,30,10,53,16.40
2008,06,30,10,54,16.50
2008,06,30,10,55,16.50
2008,06,30,10,56,16.50
2008,06,30,10,57,16.60
2008,06,30,10,58,16.70
2008,06,30,10,59,16.80
2008,06,30,11,00,16.90
2008,06,30,11,01,16.90
2008,06,30,11,02,17.00
2008,06,30,11,03,17.00
2008,06,30,11,04,17.10
2008,06,30,11,05,17.10
2008,06,30,11,06,17.20
2008,06,30,11,07,17.20
2008,06,30,11,08,17.30
2008,06,30,11,09,17.30
2008,06,30,11,10,17.40
2008,06,30,11,11,17.60
2008,06,30,11,12,17.70
2008,06,30,11,13,17.80
2008,06,30,11,14,17.90
2008,06,30,11,15,18.00
2008,06,30,11,16,18.20
2008,06,30,11,17,18.40
2008,06,30,11,18,18.60
2008,06,30,11,19,18.90
2008,06,30,11,20,19.10
2008,06,30,11,21,19.40
2008,06,30,11,22,19.60
2008,06,30,11,23,19.70
2008,06,30,11,24,19.90
2008,06,30,11,25,20.10
2008,06,30,11,26,20.20
2008,06,30,11,27,20.20
2008,06,30,11,28,20.40
2008,06,30,11,29,20.50
2008,06,30,11,30,20.40
2008,06,30,11,31,20.20
2008,06,30,11,32,20.20
2008,06,30,11,33,20.10
2008,06,30,11,34,19.90
2008,06,30,11,35,19.60
2008,06,30,11,36,19.40
2008,06,30,11,37,19.20
2008,06,30,11,38,19.20
2008,06,30,11,39,19.10
2008,06,30,11,40,19.10
2008,06,30,11,41,19.10
2008,06,30,11,42,19.30
2008,06,30,11,43,19.40
2008,06,30,11,44,19.50
2008,06,30,11,45,19.60
2008,06,30,11,46,19.60
2008,06,30,11,47,19.60
2008,06,30,11,48,19.60
2008,06,30,11,49,19.60
2008,06,30,11,50,19.50
2008,06,30,11,51,19.50
2008,06,30,11,52,19.50
2008,06,30,11,53,19.60
2008,06,30,11,54,19.60
2008,06,30,11,55,19.70
2008,06,30,11,56,19.80
2008,06,30,11,57,19.80
2008,06,30,11,58,19.90
2008,06,30,11,59,20.00
2008,06,30,12,00,20.00
2008,06,30,12,01,20.10
2008,06,30,12,02,20.30
2008,06,30,12,03,20.50
2008,06,30,12,04,20.60
2008,06,30,12,05,20.60
2008,06,30,12,06,20.70
2008,06,30,12,07,20.70
2008,06,30,12,08,20.70
2008,06,30,12,09,20.70
2008,06,30,12,10,20.60
2008,06,30,12,11,20.60
2008,06,30,12,12,20.60
2008,06,30,12,13,20.60
2008,06,30,12,14,20.60
2008,06,30,12,15,20.60
2008,06,30,12,16,20.50
2008,06,30,12,17,20.40
2008,06,30,12,18,20.30
2008,06,30,12,19,20.10
2008,06,30,12,20,20.00
2008,06,30,12,21,19.90
2008,06,30,12,22,19.80
2008,06,30,12,23,19.80
2008,06,30,12,24,19.80
2008,06,30,12,25,19.80
2008,06,30,12,26,19.80
2008,06,30,12,27,19.90
2008,06,30,12,28,19.90
2008,06,30,12,29,19.90
2008,06,30,12,30,20.00
2008,06,30,12,31,20.10
2008,06,30,12,32,20.20
2008,06,30,12,33,20.30
2008,06,30,12,34,20.40
2008,06,30,12,35,20.60
2008,06,30,12,36,20.70
2008,06,30,12,37,20.60
2008,06,30,12,38,20.50
2008,06,30,12,39,20.50
2008,06,30,12,40,20.40
2008,06,30,12,41,20.30
2008,06,30,12,42,20.20
2008,06,30,12,43,20.20
2008,06,30,12,44,20.10
2008,06,30,12,45,20.10
2008,06,30,12,46,20.10
2008,06,30,12,47,20.20
2008,06,30,12,48,20.40
2008,06,30,12,49,20.70
2008,06,30,12,50,20.90
2008,06,30,12,51,21.10
2008,06,30,12,52,21.30
2008,06,30,12,53,21.40
2008,06,30,12,54,21.60
2008,06,30,12,55,21.80
2008,06,30,12,56,21.70
2008,06,30,12,57,21.40
2008,06,30,12,58,20.90
2008,06,30,12,59,20.20
2008,06,30,13,00,19.60
2008,06,30,13,01,19.10
2008,06,30,13,02,18.80
2008,06,30,13,03,18.70
2008,06,30,13,04,18.70
2008,06,30,13,05,18.70
2008,06,30,13,06,18.80
2008,06,30,13,07,19.00
2008,06,30,13,08,19.20
2008,06,30,13,09,19.40
2008,06,30,13,10,19.60
2008,06,30,13,11,19.90
2008,06,30,13,12,20.10
2008,06,30,13,13,20.40
2008,06,30,13,14,20.60
2008,06,30,13,15,20.80
2008,06,30,13,16,20.90
2008,06,30,13,17,21.10
2008,06,30,13,18,21.20
2008,06,30,13,19,21.30
2008,06,30,13,20,21.40
2008,06,30,13,21,21.40
2008,06,30,13,22,21.40
2008,06,30,13,23,21.30
2008,06,30,13,24,21.20
2008,06,30,13,25,21.20
2008,06,30,13,26,21.10
2008,06,30,13,27,21.00
2008,06,30,13,28,20.90
2008,06,30,13,29,20.90
2008,06,30,13,30,20.80
2008,06,30,13,31,20.70
2008,06,30,13,32,20.50
2008,06,30,13,33,20.30
2008,06,30,13,34,20.00
2008,06,30,13,35,19.80
2008,06,30,13,36,19.60
2008,06,30,13,37,19.50
2008,06,30,13,38,19.40
2008,06,30,13,39,19.30
2008,06,30,13,40,19.40
2008,06,30,13,41,19.40
2008,06,30,13,42,19.30
2008,06,30,13,43,19.20
2008,06,30,13,44,19.20
2008,06,30,13,45,19.20
2008,06,30,13,46,19.20
2008,06,30,13,47,19.30
2008,06,30,13,48,19.40
2008,06,30,13,49,19.60
2008,06,30,13,50,19.80
2008,06,30,13,51,20.00
2008,06,30,13,52,20.10
2008,06,30,13,53,20.10
2008,06,30,13,54,20.10
2008,06,30,13,55,20.10
2008,06,30,13,56,20.20
2008,06,30,13,57,20.10
2008,06,30,13,58,20.20
2008,06,30,13,59,20.20
2008,06,30,14,00,20.20
2008,06,30,14,01,20.20
2008,06,30,14,02,20.20
2008,06,30,14,03,20.20
2008,06,30,14,04,20.20
2008,06,30,14,05,20.20
2008,06,30,14,06,20.20
2008,06,30,14,07,20.20
2008,06,30,14,08,20.00
2008,06,30,14,09,19.90
2008,06,30,14,10,19.90
2008,06,30,14,11,20.00
2008,06,30,14,12,20.00
2008,06,30,14,13,20.00
2008,06,30,14,14,19.90
2008,06,30,14,15,19.80
2008,06,30,14,16,19.70
2008,06,30,14,17,19.60
2008,06,30,14,18,19.50
2008,06,30,14,19,19.40
2008,06,30,14,20,19.30
2008,06,30,14,21,19.30
2008,06,30,14,22,19.30
2008,06,30,14,23,19.30
2008,06,30,14,24,19.30
2008,06,30,14,25,19.30
2008,06,30,14,26,19.30
2008,06,30,14,27,19.30
2008,06,30,14,28,19.30
2008,06,30,14,29,19.30
2008,06,30,14,30,19.20
2008,06,30,14,31,19.30
2008,06,30,14,32,19.30
2008,06,30,14,33,19.40
2008,06,30,14,34,19.60
2008,06,30,14,35,19.70
2008,06,30,14,36,19.80
2008,06,30,14,37,19.80
2008,06,30,14,38,19.80
2008,06,30,14,39,19.80
2008,06,30,14,40,19.80
2008,06,30,14,41,19.80
2008,06,30,14,42,19.70
2008,06,30,14,43,19.60
2008,06,30,14,44,19.40
2008,06,30,14,45,19.30
2008,06,30,14,46,19.40
2008,06,30,14,47,19.40
2008,06,30,14,48,19.50
2008,06,30,14,49,19.70
2008,06,30,14,50,19.90
2008,06,30,14,51,20.00
2008,06,30,14,52,20.10
2008,06,30,14,53,20.20
2008,06,30,14,54,20.30
2008,06,30,14,55,20.50
2008,06,30,14,56,20.60
2008,06,30,14,57,20.60
2008,06,30,14,58,20.70
2008,06,30,14,59,20.70
2008,06,30,15,00,20.80
2008,06,30,15,01,20.90
2008,06,30,15,02,21.00
2008,06,30,15,03,21.20
2008,06,30,15,04,21.30
2008,06,30,15,05,21.10
2008,06,30,15,06,20.90
2008,06,30,15,07,20.60
2008,06,30,15,08,20.30
2008,06,30,15,09,20.10
2008,06,30,15,10,19.90
2008,06,30,15,11,19.80
2008,06,30,15,12,19.60
2008,06,30,15,13,19.50
2008,06,30,15,14,19.40
2008,06,30,15,15,19.40
2008,06,30,15,16,19.40
2008,06,30,15,17,19.30
2008,06,30,15,18,19.20
2008,06,30,15,19,19.20
2008,06,30,15,20,19.20
2008,06,30,15,21,19.20
2008,06,30,15,22,19.30
2008,06,30,15,23,19.30
2008,06,30,15,24,19.30
2008,06,30,15,25,19.20
2008,06,30,15,26,19.20
2008,06,30,15,27,19.20
2008,06,30,15,28,19.20
2008,06,30,15,29,19.20
2008,06,30,15,30,19.00
2008,06,30,15,31,18.90
2008,06,30,15,32,18.90
2008,06,30,15,33,18.90
2008,06,30,15,34,18.90
2008,06,30,15,35,18.80
2008,06,30,15,36,18.80
2008,06,30,15,37,18.80
2008,06,30,15,38,18.90
2008,06,30,15,39,19.00
2008,06,30,15,40,19.10
2008,06,30,15,41,19.10
2008,06,30,15,42,19.20
2008,06,30,15,43,19.30
2008,06,30,15,44,19.50
2008,06,30,15,45,19.50
2008,06,30,15,46,19.30
2008,06,30,15,47,19.20
2008,06,30,15,48,19.00
2008,06,30,15,49,18.90
2008,06,30,15,50,18.80
2008,06,30,15,51,18.80
2008,06,30,15,52,18.80
2008,06,30,15,53,18.80
2008,06,30,15,54,18.80
2008,06,30,15,55,18.80
2008,06,30,15,56,18.70
2008,06,30,15,57,18.60
2008,06,30,15,58,18.60
2008,06,30,15,59,18.50
2008,06,30,16,00,18.50
2008,06,30,16,01,18.50
2008,06,30,16,02,18.50
2008,06,30,16,03,18.60
2008,06,30,16,04,18.70
2008,06,30,16,05,18.80
2008,06,30,16,06,18.90
2008,06,30,16,07,19.00
2008,06,30,16,08,19.10
2008,06,30,16,09,19.30
2008,06,30,16,10,19.40
2008,06,30,16,11,19.60
2008,06,30,16,12,19.70
2008,06,30,16,13,19.80
2008,06,30,16,14,19.90
2008,06,30,16,15,19.90
2008,06,30,16,16,19.90
2008,06,30,16,17,19.80
2008,06,30,16,18,19.80
2008,06,30,16,19,19.80
2008,06,30,16,20,19.80
2008,06,30,16,21,19.80
2008,06,30,16,22,19.80
2008,06,30,16,23,20.00
2008,06,30,16,24,20.00
2008,06,30,16,25,20.00
2008,06,30,16,26,20.10
2008,06,30,16,27,20.10
2008,06,30,16,28,20.20
2008,06,30,16,29,20.30
2008,06,30,16,30,20.50
2008,06,30,16,31,20.60
2008,06,30,16,32,20.70
2008,06,30,16,33,20.80
2008,06,30,16,34,20.80
2008,06,30,16,35,20.80
2008,06,30,16,36,20.90
2008,06,30,16,37,21.10
2008,06,30,16,38,21.20
2008,06,30,16,39,21.30
2008,06,30,16,40,21.40
2008,06,30,16,41,21.40
2008,06,30,16,42,21.50
2008,06,30,16,43,21.60
2008,06,30,16,44,21.70
2008,06,30,16,45,21.80
2008,06,30,16,46,21.90
2008,06,30,16,47,22.00
2008,06,30,16,48,22.10
2008,06,30,16,49,22.20
2008,06,30,16,50,22.20
2008,06,30,16,51,22.20
2008,06,30,16,52,22.10
2008,06,30,16,53,22.10
2008,06,30,16,54,22.00
2008,06,30,16,55,21.70
2008,06,30,16,56,21.40
2008,06,30,16,57,21.10
2008,06,30,16,58,21.00
2008,06,30,16,59,20.90
2008,06,30,17,00,21.00
2008,06,30,17,01,21.10
2008,06,30,17,02,21.10
2008,06,30,17,03,21.10
2008,06,30,17,04,21.20
2008,06,30,17,05,21.30
2008,06,30,17,06,21.30
2008,06,30,17,07,21.40
2008,06,30,17,08,21.40
2008,06,30,17,09,21.40
2008,06,30,17,10,21.40
2008,06,30,17,11,21.40
2008,06,30,17,12,21.50
2008,06,30,17,13,21.60
2008,06,30,17,14,21.60
2008,06,30,17,15,21.80
2008,06,30,17,16,21.80
2008,06,30,17,17,21.80
2008,06,30,17,18,21.80
2008,06,30,17,19,21.90